sat.trackr.live / text

‹ back to catalog

STARLINK-34118

NORAD 63900 · 2025-095L

PAYLOAD ACTIVE UNKNOWN

§ Identity

Operator
Country
US
Launch date
2025-05-10
Launch site
AFETR
Launch vehicle
Mass (kg)
RCS (m²)

Purposes: comms

External: N2YO · Heavens-Above · Gunter

§ Orbital elements

Epoch: 2026-09-20T09:33:27.952416Z

Period
94.27 min
Inclination
42.9995°
Eccentricity
0.0001208
Mean motion
15.27588412 rev/d
Perigee alt
482.2 km
Apogee alt
483.9 km
Semi-major
6,861.2 km
B*
3.8062e-4
RAAN
156.8035°
Arg perigee
268.5853°
Mean anomaly
91.4860°
Rev number
7,756

§ Raw data

STARLINK-341181 63900U 25095L   26263.39824019  .00010229  00000+0  38062-3 0  99992 63900  42.9995 156.8035 0001208 268.5853  91.4860 15.27588412 77560

JSON: /api/v1/satellites/63900 · /tle

For live sub-satellite position, see the globe view (requires WebGL).

§ Visibility from observer

Set your observer location to see the next 7 days of passes ≥ 10°. The values pass through the URL so the page stays shareable.

No JS? Fill the form by hand. The geolocation button needs JavaScript.